Tracking 29892 objects as of 21-Nov-2024
HD Live streaming from Space Station
objects crossing your sky now

COSMOS 1275 DEB

Track COSMOS 1275 DEB now!
10-day predictions


NORAD ID: 14407
Int'l Code: 1981-053JF
Perigee: 806.9 km
Apogee: 873.2 km
Inclination: 82.8 °
Period: 101.6 minutes
Semi major axis: 7211 km
RCS: 0.0184 m2 (small)
Launch date: June 4, 1981
Source: Commonwealth of Independent States (former USSR) (CIS)
Launch site: PLESETSK MISSILE AND SPACE COMPLEX (PKMTR)

Note: This is SATELLITE DEBRIS
Your satellite tracking list
Your tracking list is empty




NASA's NSSDC Master Catalog

Two Line Element Set (TLE):
1 14407U 81053JC  24325.71468340  .00004907  00000-0  23743-2 0  9993
2 14407  82.7695 358.6047 0045998 172.0487 188.1433 14.17776866140491
Source of the keplerian elements: AFSPC